IRIDIUM 70 [+] (25342 NORAD) Tracking and Keplerian Element Data

This shows tracking and keplerian element data for the satellite.

Feedback or suggestion? Click here.




ElementValue
Catalog25342
NameIRIDIUM 70 [+]
Epoch Orbit5550
Epoch Day198.68464658
Epoch Year2018
RAAN58.9834
Inclination86.4195
Eccentricity0.0002444
Argument of Perigee84.1469
Mean Anonmoly276.0008
Mean Motion14.38608607
Decay Rate5.9E-07
L11 25342U 98032A 18198.68464658 .00000059 00000-0 12755-4 0 9990
L22 25342 86.4195 58.9834 0002444 84.1469 276.0008 14.38608607 55505

Live tracking and technical data element details for IRIDIUM 70 [+] (NORAD 25342). IRIDIUM 70 [+] can be tracked NOW for your location showing map with azimuth and elevation plus other details from your city location.

Track the satellite on the map from your city or location and see movement details for azimuth, elevation, latitude, longitude, range, height, and movement on the map or in text.







IsCatalogInMostPopularTable: catalog: 25342, numindb: 31
Update: records affected: 1



GetName: 25342 IRIDIUM 70 [+]

Hit Count: updated at: Fri, 20 Jul 2018 07:02:39 GMT